This is the latest recevied weather packets stored in our database for station/object KE0PRS. If no packets are shown the sender has not sent any weather packets the latest 10 day(s).
| Time | Temp. | Humidity | Pressure | Rain* | Wind** | Luminosity | Snow |
|---|---|---|---|---|---|---|---|
| 1787427743 | 31.67° C | 50% | 1020.4 hPa | 0 mm | - | 756 W/m² | - |
| 1787427438 | 31.67° C | 50% | 1020.6 hPa | 0 mm | - | 762 W/m² | - |
| 1787427135 | 31.67° C | 51% | 1020.8 hPa | 0 mm | - | 763 W/m² | - |
| 1787426830 | 32.22° C | 49% | 1020.6 hPa | 0 mm | - | 769 W/m² | - |
| 1787426525 | 32.22° C | 50% | 1020.6 hPa | 0 mm | - | 772 W/m² | - |
| 1787426222 | 31.67° C | 51% | 1020.8 hPa | 0 mm | - | 776 W/m² | - |
| 1787425918 | 32.22° C | 50% | 1020.8 hPa | 0 mm | - | 781 W/m² | - |
| 1787425614 | 31.67° C | 49% | 1020.9 hPa | 0 mm | - | 781 W/m² | - |
| 1787425310 | 31.67° C | 51% | 1021 hPa | 0 mm | - | 789 W/m² | - |
| 1787425009 | 31.11° C | 51% | 1020.9 hPa | 0 mm | - | 787 W/m² | - |
| 1787424709 | 31.11° C | 51% | 1020.9 hPa | 0 mm | - | 787 W/m² | - |
| 1787424405 | 31.11° C | 51% | 1021.1 hPa | 0 mm | - | 783 W/m² | - |
| 1787424104 | 31.67° C | 51% | 1021 hPa | 0 mm | - | 787 W/m² | - |
| 1787423801 | 31.11° C | 51% | 1021 hPa | 0 mm | - | 787 W/m² | - |
| 1787423497 | 31.11° C | 51% | 1021.4 hPa | 0 mm | - | 782 W/m² | - |
| 1787423193 | 30.56° C | 52% | 1021.4 hPa | 0 mm | - | 784 W/m² | - |
| 1787422889 | 30.56° C | 52% | 1021.4 hPa | 0 mm | - | 783 W/m² | - |
| 1787422585 | 30.56° C | 51% | 1021.4 hPa | 0 mm | - | 780 W/m² | - |
| 1787422280 | 30.56° C | 51% | 1021.2 hPa | 0 mm | - | 775 W/m² | - |
| 1787421976 | 30.56° C | 52% | 1021.3 hPa | 0 mm | - | 773 W/m² | - |
| 1787421673 | 30.56° C | 52% | 1021.4 hPa | 0 mm | - | 768 W/m² | - |
| 1787421368 | 30.56° C | 52% | 1021.3 hPa | 0 mm | - | 763 W/m² | - |
| 1787421063 | 30.56° C | 52% | 1021.4 hPa | 0 mm | - | 753 W/m² | - |
| 1787420758 | 30.56° C | 52% | 1021.3 hPa | 0 mm | - | 749 W/m² | - |
| 1787420454 | 30° C | 55% | 1021.5 hPa | 0 mm | - | 744 W/m² | - |
* Rain latest hour (hover to see other rain measurements)
** Current wind speed in m/s (hover to see current wind gust speed)